AirNav   Everest Fuels
 
 745 users online  

39P Strom Field Airport
Morton, Washington, USA

GOING TO MORTON?


FAA INFORMATION EFFECTIVE 15 AUGUST 2019

Location

FAA Identifier: 39P
Lat/Long: 46-33-01.2990N 122-15-59.8530W
46-33.021650N 122-15.997550W
46.5503608,-122.2666258
(estimated)
Elevation: 941 ft. / 287 m (estimated)
Variation: 20E (1985)
Time zone: UTC -7 (UTC -8 during Standard Time)
Zip code: 98356

Airport Operations

Airport use: Open to the public
Activation date: 08/1964
Control tower: no
ARTCC: SEATTLE CENTER
FSS: SEATTLE FLIGHT SERVICE STATION
NOTAMs facility: SEA (NOTAM-D service available)
Attendance: UNATNDD
Wind indicator: lighted
Segmented circle: no
Lights: ACTVT MIRL RY 07/25 - CTAF.
Beacon: white-green (lighted land airport)
ACTVT ROTG BCN - CTAF.

Airport Communications

CTAF: 122.9

Nearby radio navigation aids

VOR radial/distance  VOR name  Freq  Var
OLMr115/36.3OLYMPIA VORTAC113.4019E
TCMr152/36.8MCCHORD VORTAC109.6015E

 
NDB name  Hdg/Dist  Freq  Var  ID
LACOMAS141/29.932816ELAC .-.. .- -.-.
KELSO031/35.725617ELSO .-.. ... ---

Airport Services

Parking: tiedowns
Airframe service: NONE
Powerplant service: NONE

Runway Information

Runway 7/25

Dimensions: 1810 x 40 ft. / 552 x 12 m
Surface: asphalt, in fair condition
Runway edge lights: medium intensity
Runway edge markings: MARKINGS FADED.
RUNWAY 7  RUNWAY 25
Latitude: 46-33.022283N46-33.021000N
Longitude: 122-16.213367W122-15.781733W
Traffic pattern: leftleft
Runway heading: 070 magnetic, 090 true250 magnetic, 270 true
Displaced threshold: 200 ft.no
Markings: basic, in poor conditionbasic, in poor condition
Obstructions: 50 ft. pline, 324 ft. from runway, 2:1 slope to clear
+3 FT FENCE AT 35 FT FM THLD AND 32 FT R; GUARD RAIL AND ROAD 98 FT FM THLD; 15 FT SIGN, 18 FT R, 65 FT FM THLD; TREE, 51 FT HIGH, 2 FT R, 120 FT FM THLD.
41 ft. trees, 1318 ft. from runway, 40 ft. both sides of centerline, 27:1 slope to clear
RWY 25 +2 FT ROAD AND GUARD RAIL AT 15 FT FM THLD, TREE, 15 FT HIGH, 49 FT R, 74 FT FM THLD, POLE, 8 FT HIGH, 79 FT R, 8 FT FM THLD.

Airport Ownership and Management from official FAA records

Ownership: Publicly-owned
Owner: CITY OF MORTON
PO BOX 1089
MORTON, WA 98356
Phone 360-496-6881
Manager: ANDERS PULLMAN
PO BOX 1089, PO BOX 1089
MORTON, WA 98356
Phone (360) 496-5210
PUB. WKS. SUP.

Airport Operational Statistics

Aircraft based on the field: 6
Single engine airplanes: 4
Ultralights: 2
    
Aircraft operations: avg 22/day *
82% transient general aviation
18% local general aviation
<1% military
* for 12-month period ending 31 December 2017

Additional Remarks

TREES NEAR RWY.
TREES, STREAM, AND BRUSH IN PRIM SFC.
DEER AND ELK ON & INVOF RWY.
DITCH PARL RWY ON EASTSIDE.
FOR CD CTC SEATTLE ARTCC AT 253-351-3694.

Instrument Procedures

There are no published instrument procedures at 39P.

Some nearby airports with instrument procedures:

KTDO - Ed Carlson Memorial Field - South Lewis Co Airport (23 nm W)
KCLS - Chehalis-Centralia Airport (30 nm W)
KPLU - Pierce County Airport - Thun Field (33 nm N)
KGRF - Gray Army Airfield (Joint Base Lewis-McChord) (34 nm N)
KOLM - Olympia Regional Airport (36 nm NW)
 
Loc | Ops | Rwys | IFR | FBO | Links
Com | Nav | Svcs | Stats | Notes
Area around 39P (Strom Field Airport)
 
Road maps at: MapQuest Bing Google
 
Aerial photo
WARNING: Photo may not be current or correct
Aerial photo of 39P (Strom Field Airport)
Photo taken 01-Sep-2012
looking west.

Do you have a better or more recent aerial photo of Strom Field Airport that you would like to share? If so, please send us your photo.

 
Sectional chart

 
Airport distance calculator
Flying to Strom Field Airport? Find the distance to fly.

From to 39P

Sunrise and sunset
Times for 25-Aug-2019
 Local
(UTC-7)
 Zulu
(UTC)
Morning civil twilight05:4912:49
Sunrise06:2113:21
Sunset20:0103:01
Evening civil twilight20:3303:33

Current date and time
Zulu (UTC)  25-Aug-2019 12:37:54
Local (UTC-7)  25-Aug-2019 05:37:54
 
METAR
KCLS 
30nm W 
251215Z AUTO 22003KT 10SM SCT029 11/11 A3011 RMK AO2
KPLU 
33nm N 
251215Z AUTO 00000KT BKN016 OVC030 15/14 A3010 RMK AO2
KGRF 
33nm N 
251158Z AUTO 19003KT 10SM OVC018 15/15 A3008 RMK AO2 SLP189 T01520150 10163 20133 52009 $
KTCM 
35nm N 
251213Z AUTO 23004KT 10SM OVC015 15/15 A3009 RMK AO2 SLP192 $
KOLM 
36nm NW 
251154Z AUTO 20005KT 10SM OVC011 13/11 A3009 RMK AO2 SLP187 T01330111 10150 20133 53008
KKLS 
37nm SW 
251210Z AUTO 00000KT 10SM FEW028 14/12 A3012 RMK AO2
TAF
KGRF 
33nm N 
2505/2611 VRB06KT 9999 SCT040 BKN050 QNH3002INS BECMG 2508/2509 22006KT 9999 BKN020 QNH3005INS BECMG 2520/2521 VRB06KT 9999 SCT040 QNH3017INS TX23/2600Z TN14/2512Z
KTCM 
35nm N 
251125Z 2511/2611 VRB06KT 9999 OVC015 QNH3005INS BECMG 2518/2519 25006KT 9999 SCT050 QNH3013INS TX24/2523Z TN12/2512Z
KOLM 
36nm NW 
251121Z 2512/2612 19005KT P6SM OVC035 FM251300 22004KT P6SM OVC020 FM251900 29005KT P6SM BKN050 FM260200 35005KT P6SM SCT050 SCT250 FM260400 VRB03KT P6SM FEW250
NOTAMs
Click for the latest NOTAMs
NOTAMs are issued by the DoD/FAA and will open in a separate window not controlled by AirNav.

 

 
 

Would you like to see your business listed on this page?

 If your business provides an interesting product or service to pilots, flight crews, aircraft, or users of the Strom Field Airport, you should consider listing it here.  To start the listing process, click on the button below
 
Add a business
 

Other Pages about Strom Field Airport

Update a link
 
Copyright © AirNav, LLC. All rights reserved. Privacy Policy  Contact